Location: Unspecified
(48.8656°N, 0.0000°E)
Time: 02:57:52
(UTC+00:00)

SR - Pass Details

Date: 25 June 2019
Orbit: 580 x 876 km, 66.7° (Epoch: 19 July)

Event Time Altitude Azimuth Distance (km) Brightness Sun altitude
Rises 05:47:36 0° 283° (WNW) 2,820 ? 15.0°
Reaches altitude 10° 05:51:17 10° 317° (NW) 1,956 ? 15.6°
Maximum altitude 05:52:55 12° 339° (NNW) 1,858 ? 15.9°
Drops below altitude 10° 05:54:35 10° 1° (N) 2,002 ? 16.1°
Sets 05:58:29 0° 33° (NNE) 2,980 ? 16.8°
